Iridium Next SV170

operational
NORAD ID: 43930 Int'l Des: 2019-002 Owner: IRIDS Country: US Constellation: Iridium NEXT
LEOCIRCULARPOLAR

Iridium Next SV170について

説明を読み込み中...

リアルタイム位置

3D地球を読み込み中...

次回通過

高度履歴

Altitude vs Time

uPlot chart will show altitude changes over time

軌道要素

1 43930U 19002J 25303.91009179 .00001655 00000-0 25849-3 0 9998
2 43930 86.6052 89.4292 0002256 90.0151 270.1325 14.72255201365523
Epoch: Oct 30, 2025 • Age: 15 hours

現在のステータス

高度 663.2 km
速度 7.53 km/s
衛星直下点 62.05°N, 26.85°E
打ち上げ日 Jan 11, 2019
運用期間 6.8 years
タイプ communications

技術仕様

分類 Payload
質量 860.00 kg
乾燥質量 700.00 kg
総質量 860.00 kg
長さ 3.10 m
直径 1.50 m
スパン 9.40 m
形状 Half Hex Prism+2 pan
製造者 NGISGA
バスタイプ EliteBus
フェーズステータス In Orbit
所有者/国 IRIDS/US

大規模コンステレーション

Loading constellations...